Tiempo cada hora Dabrowica

Hoy, 14 Mayo, Viernes

Tiempo Temperatura Precipitaciones Viento Presión Humedad
00:00 +12°C° 0.2 mm 2 mps 726 mmHg 94%
01:00 +12°C° 0 mm 2 mps 725 mmHg 95%
02:00 +12°C° 0.3 mm 2 mps 726 mmHg 95%
03:00 +12°C° 0.3 mm 2 mps 726 mmHg 95%
04:00 +12°C° 0.3 mm 2 mps 726 mmHg 96%
05:00 +11°C° 0.2 mm 3 mps 726 mmHg 94%
06:00 +12°C° 0.2 mm 3 mps 726 mmHg 91%
07:00 +12°C° 0.2 mm 3 mps 727 mmHg 89%
08:00 +13°C° 0.2 mm 3 mps 727 mmHg 87%
09:00 +13°C° 0.2 mm 4 mps 727 mmHg 84%
10:00 +14°C° 0.2 mm 4 mps 728 mmHg 82%
11:00 +14°C° 0.4 mm 4 mps 728 mmHg 81%
12:00 +14°C° 0.4 mm 5 mps 728 mmHg 81%
13:00 +15°C° 0.4 mm 5 mps 729 mmHg 80%
14:00 +14°C° 0.2 mm 5 mps 729 mmHg 83%
15:00 +13°C° 0.2 mm 6 mps 729 mmHg 85%
16:00 +11°C° 0.2 mm 6 mps 730 mmHg 88%
17:00 +12°C° 0 mm 5 mps 730 mmHg 87%
18:00 +12°C° 0 mm 5 mps 730 mmHg 86%
19:00 +10°C° 0 mm 5 mps 731 mmHg 86%
20:00 +11°C° 0 mm 4 mps 731 mmHg 84%
21:00 +11°C° 0 mm 4 mps 731 mmHg 83%
22:00 +10°C° 0 mm 4 mps 732 mmHg 82%
23:00 +8°C° 0 mm 4 mps 732 mmHg 86%

Mañana, 15 Mayo, Sábado

Tiempo Temperatura Precipitaciones Viento Presión Humedad
00:00 +9°C° 0 mm 3 mps 732 mmHg 89%
01:00 +8°C° 0 mm 3 mps 732 mmHg 93%
02:00 +8°C° 0 mm 3 mps 732 mmHg 94%
03:00 +8°C° 0 mm 3 mps 732 mmHg 95%
04:00 +7°C° 0 mm 2 mps 732 mmHg 96%
05:00 +9°C° 0 mm 3 mps 733 mmHg 90%
06:00 +10°C° 0 mm 3 mps 733 mmHg 85%
07:00 +12°C° 0 mm 3 mps 733 mmHg 80%
08:00 +13°C° 0 mm 3 mps 733 mmHg 74%
09:00 +14°C° 0 mm 3 mps 733 mmHg 68%
10:00 +16°C° 0 mm 3 mps 733 mmHg 62%
11:00 +17°C° 0 mm 2 mps 733 mmHg 59%
12:00 +18°C° 0 mm 2 mps 733 mmHg 55%
13:00 +19°C° 0 mm 1 mps 733 mmHg 52%
14:00 +19°C° 0.1 mm 1 mps 732 mmHg 54%
15:00 +18°C° 0.1 mm 2 mps 732 mmHg 57%
16:00 +18°C° 0.1 mm 2 mps 732 mmHg 59%
17:00 +17°C° 0.3 mm 2 mps 732 mmHg 67%
18:00 +14°C° 0.3 mm 3 mps 732 mmHg 75%
19:00 +13°C° 0.3 mm 3 mps 731 mmHg 83%
20:00 +13°C° 0.1 mm 2 mps 731 mmHg 85%
21:00 +13°C° 0.1 mm 2 mps 731 mmHg 87%
22:00 +12°C° 0.1 mm 2 mps 731 mmHg 90%
23:00 +12°C° 0 mm 2 mps 731 mmHg 90%

Pasado mañana, 16 Mayo, Domingo

Tiempo Temperatura Precipitaciones Viento Presión Humedad
00:00 +12°C° 0 mm 2 mps 731 mmHg 91%
01:00 +12°C° 0 mm 2 mps 730 mmHg 92%
02:00 +10°C° 0 mm 2 mps 730 mmHg 92%
03:00 +10°C° 0 mm 2 mps 730 mmHg 92%
04:00 +10°C° 0 mm 2 mps 730 mmHg 91%
05:00 +11°C° 0.2 mm 3 mps 730 mmHg 91%
06:00 +11°C° 0.2 mm 3 mps 730 mmHg 91%
07:00 +12°C° 0.2 mm 4 mps 730 mmHg 90%
08:00 +12°C° 0.5 mm 3 mps 730 mmHg 89%
09:00 +13°C° 0.5 mm 2 mps 730 mmHg 88%
10:00 +13°C° 0.5 mm 2 mps 730 mmHg 87%
11:00 +13°C° 1.3 mm 2 mps 731 mmHg 90%
12:00 +11°C° 1.3 mm 3 mps 731 mmHg 92%
13:00 +11°C° 1.3 mm 3 mps 731 mmHg 94%
14:00 +11°C° 0.4 mm 3 mps 731 mmHg 93%
15:00 +10°C° 0.4 mm 3 mps 731 mmHg 92%
16:00 +10°C° 0.4 mm 3 mps 731 mmHg 91%
17:00 +10°C° 0.1 mm 3 mps 731 mmHg 91%
18:00 +10°C° 0.1 mm 3 mps 731 mmHg 91%
19:00 +10°C° 0.1 mm 2 mps 731 mmHg 91%
20:00 +9°C° 0 mm 2 mps 731 mmHg 92%
21:00 +9°C° 0 mm 2 mps 731 mmHg 92%
22:00 +8°C° 0 mm 2 mps 732 mmHg 93%
23:00 +8°C° 0 mm 2 mps 732 mmHg 93%

17 Mayo, Lunes

Tiempo Temperatura Precipitaciones Viento Presión Humedad
00:00 +7°C° 0 mm 3 mps 732 mmHg 93%
01:00 +7°C° 0 mm 3 mps 732 mmHg 93%
02:00 +7°C° 0 mm 3 mps 732 mmHg 92%
03:00 +7°C° 0 mm 3 mps 732 mmHg 92%
04:00 +7°C° 0 mm 3 mps 732 mmHg 92%
05:00 +9°C° 0 mm 3 mps 732 mmHg 89%
06:00 +10°C° 0 mm 3 mps 732 mmHg 85%
07:00 +12°C° 0 mm 4 mps 732 mmHg 82%
08:00 +13°C° 0 mm 4 mps 732 mmHg 77%
09:00 +14°C° 0 mm 4 mps 732 mmHg 71%
10:00 +15°C° 0 mm 5 mps 732 mmHg 66%
11:00 +15°C° 0 mm 5 mps 732 mmHg 64%
12:00 +15°C° 0 mm 5 mps 732 mmHg 63%
13:00 +16°C° 0 mm 5 mps 732 mmHg 61%
14:00 +16°C° 0.1 mm 5 mps 732 mmHg 62%
15:00 +16°C° 0.1 mm 5 mps 732 mmHg 64%
16:00 +16°C° 0.1 mm 5 mps 732 mmHg 65%
17:00 +15°C° 0.1 mm 4 mps 732 mmHg 71%
18:00 +13°C° 0.1 mm 3 mps 732 mmHg 77%
19:00 +13°C° 0.1 mm 2 mps 732 mmHg 82%
20:00 +12°C° 0 mm 2 mps 732 mmHg 84%
21:00 +12°C° 0 mm 2 mps 733 mmHg 85%
22:00 +10°C° 0 mm 2 mps 733 mmHg 87%
23:00 +9°C° 0 mm 2 mps 733 mmHg 87%

18 Mayo, Martes

Tiempo Temperatura Precipitaciones Viento Presión Humedad
00:00 +9°C° 0 mm 2 mps 733 mmHg 88%
01:00 +8°C° 0 mm 2 mps 733 mmHg 88%
02:00 +8°C° 0 mm 2 mps 733 mmHg 88%
03:00 +8°C° 0 mm 2 mps 733 mmHg 88%
04:00 +8°C° 0 mm 2 mps 732 mmHg 88%
05:00 +9°C° 0.2 mm 2 mps 733 mmHg 86%
06:00 +10°C° 0.2 mm 2 mps 733 mmHg 85%
07:00 +10°C° 0.2 mm 2 mps 733 mmHg 84%
08:00 +12°C° 0.2 mm 2 mps 733 mmHg 79%
09:00 +13°C° 0.2 mm 2 mps 733 mmHg 74%
10:00 +14°C° 0.2 mm 2 mps 733 mmHg 69%
11:00 +14°C° 0.2 mm 2 mps 733 mmHg 66%
12:00 +15°C° 0.2 mm 2 mps 733 mmHg 64%
13:00 +15°C° 0.2 mm 1 mps 733 mmHg 62%
14:00 +15°C° 0.3 mm 2 mps 733 mmHg 66%
15:00 +15°C° 0.3 mm 2 mps 733 mmHg 69%
16:00 +15°C° 0.3 mm 2 mps 733 mmHg 73%
17:00 +13°C° 0.4 mm 3 mps 733 mmHg 77%
18:00 +12°C° 0.4 mm 3 mps 733 mmHg 82%
19:00 +11°C° 0.4 mm 4 mps 733 mmHg 87%
20:00 +10°C° 0 mm 4 mps 733 mmHg 89%
21:00 +9°C° 0 mm 5 mps 733 mmHg 91%
22:00 +8°C° 0 mm 5 mps 734 mmHg 94%
23:00 +8°C° 0 mm 5 mps 734 mmHg 94%

19 Mayo, Miércoles

Tiempo Temperatura Precipitaciones Viento Presión Humedad
00:00 +7°C° 0 mm 5 mps 734 mmHg 94%
01:00 +7°C° 0 mm 5 mps 734 mmHg 95%
02:00 +6°C° 0 mm 5 mps 734 mmHg 95%
03:00 +6°C° 0 mm 5 mps 734 mmHg 95%
04:00 +6°C° 0 mm 5 mps 734 mmHg 95%
05:00 +7°C° 0 mm 5 mps 734 mmHg 91%
06:00 +8°C° 0 mm 6 mps 734 mmHg 86%
07:00 +9°C° 0 mm 6 mps 734 mmHg 81%
08:00 +10°C° 0 mm 6 mps 734 mmHg 77%
09:00 +10°C° 0 mm 7 mps 734 mmHg 73%
10:00 +11°C° 0 mm 7 mps 734 mmHg 69%
11:00 +11°C° 0.1 mm 6 mps 734 mmHg 71%
12:00 +10°C° 0.1 mm 6 mps 734 mmHg 74%
13:00 +10°C° 0.1 mm 5 mps 734 mmHg 76%
14:00 +10°C° 0.6 mm 6 mps 734 mmHg 78%
15:00 +10°C° 0.6 mm 6 mps 734 mmHg 79%
16:00 +10°C° 0.6 mm 6 mps 734 mmHg 80%
17:00 +9°C° 0.4 mm 6 mps 734 mmHg 83%
18:00 +8°C° 0.4 mm 6 mps 734 mmHg 86%
19:00 +7°C° 0.4 mm 5 mps 734 mmHg 89%
20:00 +6°C° 0 mm 5 mps 735 mmHg 91%
21:00 +6°C° 0 mm 4 mps 735 mmHg 93%
22:00 +5°C° 0 mm 3 mps 735 mmHg 94%
23:00 +5°C° 0 mm 3 mps 735 mmHg 94%
Mostrar más

Necesitamos Su Consentimiento

Meteoprog y nuestros Proveedores de Servicios pueden almacenar y acceder a sus datos personales como cookies, identificadores de dispositivo u otras tecnologías similares de su dispositivo y procesar dichos datos para personalizar contenido y anuncios, además de ofrecer funciones de redes sociales y analizar el tráfico.

  • Almacenar y/o acceder a información en su dispositivo

    Se puede almacenar o acceder a cookies, identificadores de dispositivo u otra información de su dispositivo para los fines anteriormente indicados.

  • Anuncios y contenido personalizados, medición de anuncios y contenido, percepciones del público, y desarrollo de productos

    Los anuncios y el contenido pueden personalizarse en base a su perfil. Se pueden añadir más datos para personalizar mejor los anuncios y contenidos. Se puede medir el rendimiento de los anuncios y contenidos. Se puede obtener la percepción sobre el público que ha visto los anuncios y contenidos. Dichos datos pueden usarse para desarrollar o mejorar la experiencia del usuario, sistemas y software.

Al hacer clic en ‘Estoy De Acuerdo’ usted permitirá el uso de las cookies, identificadores de dispositivo, balizas web u otras tecnologías similares indicadas. Su configuración puede cambiarse desde el navegador de su dispositivo.

Para ciertos fines, los intereses legítimos pueden ser considerados por encima del consentimiento. Puede leer más sobre ello en nuestra Política de Privacidad y Cookies.